913  
ASUS41 KGYX 111310  
RWRGYX  
WEATHER ROUNDUP FOR MAINE AND NEW HAMPSHIRE  
NATIONAL WEATHER SERVICE GRAY ME  
900 AM EDT THU AUG 11 2022  
 
MEZ002-005-006-010-012-015-018-020-021-024-026-027-029-111400-  
MAINE  
 
CITY SKY/WX TMP DP RH WIND PRES REMARKS
 
PORTLAND CLOUDY 67 61 81 CALM 29.93S  
SANFORD MOSUNNY 67 62 84 CALM 29.93F  
BAR HARBOR CLOUDY 66 59 78 SE5 29.94F  
WISCASSET CLOUDY 65 61 87 S3 29.94F  
ROCKLAND CLOUDY 67 63 87 S6 29.93F  
FRYEBURG SUNNY 69 61 75 CALM 29.94F  
LEWISTONAUBURN MOSUNNY 66 65 96 CALM 29.93F  
AUGUSTA CLOUDY 66 61 84 CALM 29.94S  
WATERVILLE PTSUNNY 65 62 90 SW3 29.91S  
BANGOR PTSUNNY 68 62 81 S6 29.92F  
GREENVILLE N/A 62 61 96 CALM 29.92S  
MILLINOCKET CLOUDY 67 65 93 VRB3 29.93F  
HOULTON CLOUDY 65 62 90 SW8 29.90F  
PRESQUE ISLE CLOUDY 65 61 87 S7 29.91S  
FRENCHVILLE PTSUNNY 66 59 78 SW7 29.88S  
CARIBOU CLOUDY 66 61 84 S8 29.88S  

 
 
NHZ002-005-008-009-011-012-014-111400-  
NEW HAMPSHIRE  
 
CITY SKY/WX TMP DP RH WIND PRES REMARKS
 
PORTSMOUTH PTSUNNY 70 63 80 CALM 29.92F  
ROCHESTER MOSUNNY 69 63 81 CALM 29.93S  
NASHUA PTSUNNY 71 69 93 CALM 29.93S  
MANCHESTER PTSUNNY 70 63 78 CALM 29.91F  
CONCORD PTSUNNY 68 62 81 CALM 29.92F  
LACONIA CLOUDY 68 64 87 SW3 29.93F  
BERLIN SUNNY 63 57 81 CALM 29.94F  
WHITEFIELD SUNNY 63 57 81 CALM 29.94F  
JAFFREY SUNNY 71 61 70 S6 29.95S  
KEENE SUNNY 70 64 81 S5 N/A  
LEBANON PTSUNNY 68 60 75 CALM 29.93F  
MT WASHINGTON FOG 50 50 100 SE2 N/A VSB 1/4  

 
 
VTZ005-007-008-111400-  
VERMONT  
 
CITY SKY/WX TMP DP RH WIND PRES REMARKS
 
MONTPELIER CLOUDY 63 60 90 N3 29.97F  
BURLINGTON MOSUNNY 71 62 73 SW7 29.91S  

 
 
MAZ007-012-024-CTZ003-RIZ002-NYZ038-NYZ072-111400-  
SOUTHERN NEW ENGLAND AND NY  
 
CITY SKY/WX TMP DP RH WIND PRES REMARKS
 
BOSTON CLOUDY 69 65 86 SE6 29.92F  
WORCESTER SUNNY 70 63 78 W8 29.95S  
NANTUCKET CLOUDY 72 68 87 SE9 29.93F  
PROVIDENCE CLOUDY 74 69 85 VRB5 29.92F  
HARTFORD PTSUNNY 71 61 70 CALM 29.93S  
ALBANY PTSUNNY 71 60 68 CALM 29.94F  
NEW YORK CITY PTSUNNY 75 71 87 E6 29.91R  

 
 
ANZ081-ANZ082-ANZ150-NHZ014-MEZ023>029-111400-  
COASTAL MARINE OBSERVATIONS  
 
STATION/POSITION TIME TEMP WIND PRES WAVE
 
AIR SEA DIR/SP/G HT/PER  
(UTC) (F) (DEG/KT/KT) (MB) (FT/S)  
MOUNT DESERT ROC 1300 63 90/ 4/ 4 1013.7F  
MATINICUS ROCK 1200 62 120/ 3/ 3 1014.1R  
ISLE OF SHOALS 1200 65 200/ 5/ 5 1013.0R  
JEFFREYS LEDGE 1226 66 N/A 2/ 7  
CASHES LEDGE BUO 1250 69 71 230/ 4/ 6 1013.0F 2/ 6  
GEORGES BANK BUO 1240 69 1014.2S  

 
   
............KEY...........
 
 
WCI - WIND CHILL  
TC - TEMPERATURE IN CELSIUS  
VSB - VISIBILITY
IN MILES  
HX - HEAT INDEX  
FAIR- INDICATES FEW OR NO CLOUDS BELOW 12,000 FT, WITH NO  
SIGNIFICANT WEATHER AND/OR S TO VISIBILITY.  
 
 
 
CLICK HERE TO GO TO PREVIOUS BULLETINS.

The Nexlab ME Page
The Nexlab NH Page Main Text Page